Location: Ailly
(50.0793°N, 1.9944°E)
Time: 00:47:48
(UTC+00:00)

CBERS-1 - Pass Details

Date: 15 January 2026
Orbit: 765 x 773 km, 98.9° (Epoch: 6 February)

Event Time Altitude Azimuth Distance (km) Brightness Sun altitude
Rises 06:53:54 0° 10° (N) 3,245 7.1 -8.1°
Reaches altitude 10° 06:56:19 10° 3° (N) 2,315 6.3 -7.7°
Maximum altitude 07:01:04 41° 295° (WNW) 1,097 4.4 -7.0°
Drops below altitude 10° 07:05:48 10° 226° (SW) 2,302 6.3 -6.3°
Sets 07:08:12 0° 219° (SW) 3,225 7.1 -6.0°
